Location: Mauna Kea VIS
(19.7591°N, 155.4561°W)
Time: 23:29:40
(UTC-10:00)

BlueWalker 3 - Pass Details

Date: 10 December 2025
Orbit: 451 x 463 km, 53.2° (Epoch: 18 January)

Event Time Altitude Azimuth Distance (km) Brightness Sun altitude
Rises 19:31:18 0° 307° (NW) 2,483 6.0 -24.5°
Reaches altitude 10° 19:33:40 10° 295° (WNW) 1,606 5.1 -25.1°
Maximum altitude 19:36:44 26° 236° (WSW) 941 3.9 -25.7°
Enters shadow 19:38:45 16° 190° (S) 1,271 4.2 -26.2°
